Location: Dal�� Lhota
(48.7500°N, 14.0167°E)
Time: 18:26:43
(UTC+00:00)

Vanguard 3 - Pass Details

Date: 06 August 2021
Orbit: 510 x 3260 km, 33.3° (Epoch: 20 September)

Event Time Altitude Azimuth Distance (km) Brightness Sun altitude
Rises 16:15:19 0° 237° (WSW) 4,978 12.1 21.3°
Reaches altitude 10° 16:18:21 10° 230° (SW) 4,317 11.7 20.8°
Maximum altitude 16:30:01 42° 165° (SSE) 3,401 10.4 18.8°
Drops below altitude 10° 16:46:53 10° 104° (ESE) 6,152 11.1 16.1°
Sets 16:52:14 0° 99° (E) 7,228 11.3 15.2°
